Regional Weather Roundup
Issued by NWS Cleveland, OH

Home | Current Version | Previous Version | Text Only | Print | Product List | Glossary Off
Versions: 1 2 3 4 5 6 7 8 9 10 11 12 13 14 15 16 17 18 19 20 21 22 23 24 25 26 27 28 29 30 31 32 33 34 35 36 37 38 39 40 41 42 43 44 45 46 47 48 49 50

000
ASUS41 KCLE 270700
RWRCLE
OHIO REGIONAL WEATHER ROUNDUP
NATIONAL WEATHER SERVICE WILMINGTON, OH
300 AM EDT WED MAY 27 2015

NOTE: "FAIR" INDICATES FEW OR NO CLOUDS BELOW 12,000 FEET WITH NO
SIGNIFICANT WEATHER AND/OR OBSTRUCTIONS TO VISIBILITY.

OHZ001>008-015>018-024>027-034-035-043-044-270800-
   NORTHWEST OHIO

CITY           SKY/WX    TMP DP  RH WIND       PRES   REMARKS
DEFIANCE       MOCLDY    68  61  78 SW8       29.96R
FINDLAY        PTCLDY    69  65  86 S15       29.98S
TOLEDO EXPRESS MOCLDY    68  64  87 SW8       29.95R
TOLEDO EXEC    MOCLDY    69  64  84 SW12      29.96R
LIMA           MOCLDY    67  64  90 S10       30.00S
$$

OHZ009>014-019>023-028>033-038-089-270800-
   NORTHEAST OHIO

CITY           SKY/WX    TMP DP  RH WIND       PRES   REMARKS
CLE-HOPKINS    CLOUDY    68  65  90 S14       30.02R
CLE-LAKEFRONT  RAIN      70  65  84 S16G28    29.98R
CUY CO. ARPT   NOT AVBL
LORAIN-ELYRIA  MOCLDY    68  65  90 SW13      30.00R
ASHTABULA      CLOUDY    68  65  90 S13G21    30.02R
AKRON-CANTON   CLOUDY    67  64  90 SW14      30.05S
WOOSTER        NOT AVBL
MANSFIELD      MOCLDY    67  65  93 S15       30.04R
YOUNGSTOWN     CLOUDY    67  64  90 S9        30.05R
$$

OHZ042-051>053-060>062-070>072-077>081-270800-
  SOUTHWEST OHIO

CITY           SKY/WX    TMP DP  RH WIND       PRES   REMARKS
CINC-COVINGTON MOCLDY    67  65  93 S8        30.06F
CINC-LUNKEN    CLOUDY    68  66  93 SW9       30.06F
HAMILTON       MOCLDY    69  66  90 SW5       30.06S
DAYTON         NOT AVBL
WRIGHT-PAT AFB NOT AVBL
DAYTON GENERAL CLOUDY    67  65  93 SW7       30.04F
WILMINGTON     CLOUDY    67  64  90 SW13      30.06S
$$

OHZ036-037-039>041-045>050-054>059-063>069-073>076-082>088-270800-
  CENTRAL AND SOUTHEAST OHIO

CITY           SKY/WX    TMP DP  RH WIND       PRES   REMARKS
COLUMBUS       CLOUDY    67  65  93 S9        30.06R
OSU AIRPORT    CLOUDY    67  64  90 S8        30.05S
BOLTON FIELD   NOT AVBL
RICKENBACK AFB NOT AVBL
NEWARK         CLOUDY    68  65  90 SW9       30.06S
MARION         CLOUDY    68  65  90 S13       30.03S
LANCASTER      MOCLDY    68  64  87 SW7       30.07S
ZANESVILLE     CLOUDY    66  63  90 S5        30.07F
NEW PHILLY     NOT AVBL
$$



USA.gov is the U.S. government's official web portal to all federal, state and local government web resources and services.